www.pogodaiklimat.ru

Погода и климат >> Архив погоды >> Таиланд >> Satun


ПОГОДА в Satun

  • Прогноз погоды в Satun
  • Монитор погоды в Satun
  • Климат города

АРХИВ ПОГОДЫ в Satun

Время (UTC), дата Ветер
(напр.,м/с)
 
Видим.   Явления Облачность Т
(С)
Тd
(С)
f
(%)
Тe
(С)
Тes
(С)
Комфортность P
(гПа)
Po
(гПа)
Тmin
(С)
Tmax
(С)
R
(мм)
R24
(мм)
S
(см)
18 22.04 штиль 0 10 км 6/3 600 м
[Cu med, cong Cs]
+25.8 +24.3 91 +36 +36 очень
душно
1010.8 1010.1
21 22.04 штиль 0 10 км 6/3 600 м
[Cu med, cong Cs]
+25.2 +23.7 91 +34 +34 очень
душно
1009.5 1008.8
00 23.04 штиль 0 10 км 4/1 600 м
[Cu med, cong Cs]
+24.8 +24.2 96 +34 +35 очень
душно
1010.0 1009.3 +23.5 16
03 23.04 штиль 0 10 км 8/3 600 м
[Cu med, cong Ac lent Cs]
+31.0 +25.8 74 +46 +55 опасность
перегрева
1012.3 1011.6
06 23.04 штиль 0 10 км 8/3 600 м
[Cu med, cong Ac lent Cs]
+32.1 +24.9 66 +46 +59 опасность
перегрева
1010.8 1010.1
09 23.04 штиль 0 10 км {гроза} 9/3 600 м
[Cu med, cong Ac lent Cs]
+28.4 +24.5 79 +40 +44 очень
душно
1008.5 1007.8
12 23.04 штиль 0 10 км {гроза} 9/3 600 м
[Cu med, cong Ac lent Cs]
+27.0 +24.5 86 +38 +38 очень
душно
1010.0 1009.3 +33.0
15 23.04 штиль 0 10 км 8/3 600 м
[Cu med, cong Ac lent Cs]
+27.0 +25.6 92 +40 +40 очень
душно
1010.5 1009.9
18 23.04 штиль 0 10 км 8/3 600 м
[Cu med, cong Cs]
+26.0 +24.6 92 +37 +37 очень
душно
1009.7 1009.0
21 23.04 штиль 0 10 км 8/3 600 м
[Cu med, cong Cs]
+25.4 +24.4 94 +35 +35 очень
душно
1008.5 1007.8
00 24.04 штиль 0 10 км 8/3 600 м
[Cu med, cong Cs]
+25.0 +24.0 94 +34 +35 очень
душно
1010.3 1009.7 +24.5
03 24.04 штиль 0 10 км 5/3 600 м
[Cu med, cong Cs]
+31.9 +25.0 67 +45 +59 опасность
перегрева
1012.3 1011.7
06 24.04 В 2 3000 м гроза, ливневой дождь 10/6 600 м
[Cb cap Ac As Cs]
+25.8 +23.2 86 +35 +39 очень
душно
1010.8 1010.1 18
09 24.04 штиль 0 10 км гроза без осадков 10/4 600 м
[Cb cap Ac lent Cs]
+24.9 +23.3 91 +33 +36 очень
душно
1008.4 1007.7 8
12 24.04 штиль 0 10 км {гроза, дождь} 9/4 600 м
[Sc Ac lent Cs]
+25.0 +24.0 94 +34 +34 очень
душно
1010.1 1009.4 +34.1 2
15 24.04 штиль 0 10 км 9/4 600 м
[Cu Sc Ac lent Cs]
+25.0 +24.1 95 +34 +34 очень
душно
1011.5 1010.8
18 24.04 штиль 0 10 км 8/3 600 м
[Cu med, cong Ac lent Cs]
+24.8 +23.9 95 +34 +34 очень
душно
1010.4 1009.7
21 24.04 штиль 0 10 км 6/1 600 м
[Cu med, cong Cs]
+24.5 +23.6 95 +33 +33 очень
душно
1009.5 1008.8
00 25.04 штиль 0 10 км 5/1 600 м
[Cu med, cong Cs]
+24.6 +23.7 95 +33 +34 очень
душно
1010.5 1009.8 +24.0 27
03 25.04 штиль 0 10 км 5/1 600 м
[Cu med, cong Cs]
+31.0 +23.8 66 +43 +59 опасность
перегрева
1012.1 1011.4
06 25.04 штиль 0 10 км 8/3 600 м
[Cu med, cong Cs]
+34.2 +24.3 56 +46 +63 опасность
перегрева
1010.2 1009.5
09 25.04 штиль 0 10 км в посл. час гроза 8/3 600 м
[Cb cap Cs]
+28.0 +23.2 75 +38 +44 очень
душно
1007.2 1006.5
12 25.04 штиль 0 10 км {гроза} 6/3 600 м
[Cu med, cong Cs]
+27.0 +24.1 84 +37 +37 очень
душно
1009.5 1008.8 +34.5
15 25.04 штиль 0 10 км 8/3 600 м
[Cu med, cong Cs]
+26.0 +24.4 91 +36 +36 очень
душно
1010.9 1010.2
18 25.04 штиль 0 10 км 6/1 600 м
[Cu med, cong Cs]
+25.5 +24.2 93 +35 +35 очень
душно
1010.0 1009.4
21 25.04 штиль 0 10 км 6/1 600 м
[Cu med, cong Cs]
+25.0 +24.0 94 +34 +34 очень
душно
1008.9 1008.2
00 26.04 штиль 0 10 км 6/1 600 м
[Cu med, cong Cs]
+25.0 +24.1 95 +34 +35 очень
душно
1009.6 1008.9 +24.4
03 26.04 штиль 0 10 км 5/3 600 м
[Cu med, cong Cs]
+32.0 +24.9 66 +45 +59 опасность
перегрева
1011.4 1010.7
06 26.04 штиль 0 7000 м гроза, ливневой дождь 10/5 600 м
[Cb cap Ac As Cs]
+27.0 +21.9 74 +35 +42 очень
душно
1010.8 1010.1 0.1
09 26.04 штиль 0 10 км {гроза} 10/4 600 м
[Cu Sc Ac lent Cs]
+27.5 +23.9 81 +38 +41 очень
душно
1008.4 1007.8
12 26.04 штиль 0 10 км {гроза} 10/4 600 м
[Cu Sc Ac lent Cs]
+26.8 +24.2 86 +37 +37 очень
душно
1009.8 1009.1 +33.1
15 26.04 штиль 0 10 км 10/3 600 м
[Cu med, cong Ac lent Cs]
+26.4 +24.7 90 +37 +37 очень
душно
1011.6 1010.9
18 26.04 штиль 0 10 км 9/3 600 м
[Cu med, cong Ac lent Cs]
+25.8 +24.5 93 +36 +36 очень
душно
1011.0 1010.3
21 26.04 штиль 0 10 км 9/3 600 м
[Cu med, cong Ac lent Cs]
+25.4 +24.1 93 +35 +35 очень
душно
1009.6 1008.9
00 27.04 штиль 0 10 км 9/3 600 м
[Cu med, cong Ac lent Cs]
+25.4 +24.2 93 +35 +36 очень
душно
1010.5 1009.8 +24.7 0.2
03 27.04 штиль 0 10 км 8/3 600 м
[Cu med, cong Cs]
+30.3 +25.0 73 +43 +55 опасность
перегрева
1011.6 1010.9
06 27.04 З 5 10 км 8/3 600 м
[Cu med, cong Cs]
+32.0 +24.9 66 +45 +52 опасность
перегрева
1010.1 1009.4
09 27.04 штиль 0 6000 м гроза, ливневой дождь 10/5 600 м
[Cb cap Ac As Cs]
+26.0 +23.8 88 +36 +38 очень
душно
1008.3 1007.6 0.2
12 27.04 штиль 0 10 км {гроза} 10/4 600 м
[Cu Sc Ac lent Cs]
+25.0 +23.5 91 +34 +34 очень
душно
1009.2 1008.5 +33.1 0.6
15 27.04 штиль 0 10 км зарница 10/4 600 м
[Cb cap Ac lent Cs]
+25.0 +23.5 91 +34 +34 очень
душно
1011.2 1010.5
18 27.04 штиль 0 10 км 9/3 600 м
[Cu med, cong Ac lent Cs]
+25.0 +24.0 94 +34 +34 очень
душно
1011.1 1010.4
21 27.04 штиль 0 10 км 8/3 600 м
[Cu med, cong Ac lent Cs]
+24.7 +23.7 94 +34 +34 очень
душно
1009.3 1008.7
00 28.04 штиль 0 10 км 8/3 600 м
[Cu med, cong Ac lent Cs]
+24.9 +24.0 95 +34 +35 очень
душно
1010.1 1009.4 +24.2 0.8
03 28.04 штиль 0 10 км 8/3 600 м
[Cu med, cong Cs]
+31.5 +25.9 72 +47 +59 опасность
перегрева
1011.5 1010.8
06 28.04 штиль 0 6000 м слабый дождь 10/6 600 м
[Cu Sc Ac As Cs]
+30.0 +25.8 78 +45 +50 опасность
перегрева
1010.2 1009.6 4
09 28.04 штиль 0 10 км {дождь} 9/3 600 м
[Sc Ac lent Cs]
+27.7 +26.0 90 +41 +45 опасность
перегрева
1006.9 1006.3 28
12 28.04 штиль 0 10 км {дождь} 9/4 600 м
[Cu Sc Ac lent Cs]
+26.5 +24.8 90 +38 +38 очень
душно
1009.5 1008.8 +31.9 32
15 28.04 штиль 0 10 км 8/3 600 м
[Cu med, cong Cs]
+25.8 +24.6 93 +36 +36 очень
душно
1011.9 1011.2
18 28.04 штиль 0 10 км 6/1 600 м
[Cu med, cong Cs]
+25.0 +24.0 94 +34 +34 очень
душно
1011.0 1010.3
21 28.04 штиль 0 10 км 6/1 600 м
[Cu med, cong Cs]
+24.6 +23.7 95 +33 +33 очень
душно
1009.8 1009.1
00 29.04 штиль 0 10 км 6/1 600 м
[Cu med, cong Cs]
+24.6 +23.7 95 +33 +34 очень
душно
1010.9 1010.2 +24.0 32
03 29.04 штиль 0 10 км 8/3 600 м
[Cu med, cong Ac lent Cs]
+29.5 +25.2 78 +43 +52 опасность
перегрева
1011.5 1010.9
06 29.04 штиль 0 10 км 8/3 600 м
[Cu med, cong Ac lent Cs]
+32.3 +24.8 65 +46 +58 опасность
перегрева
1010.7 1010.0
09 29.04 З 2 10 км 8/3 600 м
[Cu med, cong Ac lent Cs]
+34.8 +24.9 57 +48 +52 опасность
перегрева
1007.7 1007.1
12 29.04 штиль 0 10 км {дождь} 8/3 600 м
[Cu med, cong Ac lent Cs]
+26.5 +24.9 91 +38 +38 очень
душно
1009.4 1008.8 +34.8 0.6
15 29.04 штиль 0 10 км 8/3 600 м
[Cu med, cong Ac lent Cs]
+25.9 +25.0 95 +37 +37 очень
душно
1011.5 1010.8

 

Местоположение метеостанции Satun (Таиланд): широта 6.65 долгота 100.08 высота над уровнем моря 6 м.

В архиве по умолчанию представлена погода в Satun за последнюю неделю. Архивные данные за месяц целиком и за предыдущие месяцы, начиная с января 2011 года, Вы можете получить, выбрав интересующий диапазон дат из раскрывающегося списка и нажав кнопку "Ввод!".

Внимание! Время в таблицах - всемирное. Для получения местного времени необходимо прибавить поправку, которая в Satun равна 7 ч.

Смотрите также архив погоды в соседних городах и на ближайших метеорологических станциях:

Погода в Sa-dao (Таиланд) (39 км)
Погода в Hat Yai (Таиланд) (49 км)
Погода в Langkawi (Малайзия) (53 км)
Погода в Alor Star (Малайзия) (61 км)
Погода в Songkhla (Таиланд) (85 км)
Погода в Phatthalung Agromet (Таиланд) (104 км)
Погода в Trang (Таиланд) (109 км)
Погода в Pattani (Таиланд) (119 км)
Погода в Yala Agromet (Таиланд) (133 км)
Погода в Butterworth Air Base (Малайзия) (135 км)

Пояснения к столбцам:

Ветер - указаны скорость ветра в м/с - средняя за 10 мин, порывы в срок и между сроками (в фигурных скобках) и направление, откуда дует ветер: С - северный, СВ - северо-восточный, В - восточный, ЮВ - юго-восточный, Ю - южный, ЮЗ - юго-западный, З - западный, СЗ - северо-западный.
Видимость - горизонтальная дальность видимости в метрах или километрах. При видимости от 1 до 10 км при отсутствии осадков обычно наблюдается дымка, при ухудшении видимости до 1 км и менее - туман. В сухую погоду видимость может ухудшаться дымом, пылью или мглою.
Явления - указаны атмосферные явления, наблюдавшиеся в срок или в последний час перед сроком; фигурными скобками обозначены явления, наблюдавшиеся между сроками (за 1-3 часа до срока); квадратными скобками обозначены град или гололедные отложения с указанием их диаметра в мм.
Облачность - указаны через наклонную черту общая и нижняя облачность в баллах и высота нижней границы облаков в метрах; квадратными скобками обозначены формы облаков: Ci - перистые, Cs - перисто-слоистые, Cc - перисто-кучевые, Ac - высококучевые, As - высокослоистые, Sc - слоисто-кучевые, Ns - слоисто-дождевые, Cu - кучевые, Cb - кучево-дождевые. Подробнее классификацию облаков см. в Атласе облаков (PDF).
T - Температура воздуха - температура, измеренная на высоте 2 м над землей.
Td - Температура точки росы - температура, при понижении до которой содержащийся в воздухе водяной пар достигнет насыщения.
f - Относительная влажность воздуха - влажноcть воздуха, измеренная на высоте 2 м над землей.
Te - Эффективная температура - температура, которую ощущает одетый по сезону человек в тени. Характеристика душности погоды. При расчете учитывается влияние влажности воздуха и скорости ветра на теплоощущения человека.
Tes - Эффективная температура на солнце - температура, которую ощущает человек, с поправкой на солнечный нагрев. Характеристика знойности погоды. Зависит от высоты солнца над горизонтом, облачности и скорости ветра. Ночью, в пасмурную погоду, а также при ветре 12 м/с и более поправка равна нулю.
P - Атмосферное давление - приведенное к уровню моря атмосферное давление.
Po - Атмосферное давление - измеренное на уровне метеостанции атмосферное давление.
Tmin - Минимальная температура - минимум температуры воздуха на высоте 2 м над землей.
Tmax - Максимальная температура - максимум температуры воздуха на высоте 2 м над землей.
R - Количество осадков - Количество выпавших осадков за период времени, мм. При наведении курсора мыши на число - период времени, за который выпало указанное количество осадков.
R24 - Количество осадков - Количество выпавших осадков за 24 часа, мм.
S - Снежный покров - Высота снежного покрова, см. При наведении курсора мыши на число - состояние снежного покрова и степень покрытия местности в баллах.